Omaha, IA

9:26 AM CDT on June 26, 2017 (GMT -0500)
Eppley Airfield

Weather History for KOMA - March, 2013

Change the Weather History Date:

Saturday, March 30, 2013

  Actual Average Record
Temperature  
Mean Temperature 55 °F 45 °F  
Max Temperature 68 °F 57 °F 89 °F (1968)
Min Temperature 42 °F 33 °F 11 °F (1987)
Degree Days  
Heating Degree Days 10 20  
Month to date heating degree days 926 772  
Since 1 July heating degree days 5407 5570  
Cooling Degree Days 0 0  
Month to date cooling degree days 0 0  
Year to date cooling degree days 0 0  
Growing Degree Days 8 (Base 50)    
Moisture  
Dew Point 43 °F    
Average Humidity 63    
Maximum Humidity 93    
Minimum Humidity 32    
Precipitation  
Precipitation 0.16 in 0.08 in 0.95 in (1998)
Month to date precipitation 1.89 1.90  
Year to date precipitation 3.18 3.47  
Snow  
Snow 0.00 in 0.10 in - ()
Month to date snowfall 10.7 4.1  
Since 1 July snowfall 32.1 25.3  
Snow Depth 0.00 in    
Sea Level Pressure  
Sea Level Pressure 29.95 in    
Wind  
Wind Speed 9 mph (NW)    
Max Wind Speed 22 mph    
Max Gust Speed 29 mph    
Visibility 10 miles    
Events Rain    
T = Trace of Precipitation, MM = Missing Value Source: NWS Daily Summary

Daily Weather History Graph

Daily Weather History Graph

Search for Another Location

Airport or City:

Trip Planner

Search our weather history database for the weather conditions in past years. The results will help you decide how hot, cold, wet, or windy it might be!

Date:

Astronomy

Mar. 30, 2013 Rise Set
Actual Time 7:09 AM CDT 7:46 PM CDT
Civil Twilight 6:41 AM CDT 8:14 PM CDT
Nautical Twilight 6:09 AM CDT 8:47 PM CDT
Astronomical Twilight 5:35 AM CDT 9:21 PM CDT
Moon 11:57 PM CDT (3/30) 9:03 AM CDT (3/30)
Length of Visible Light 13h 32m
Length of Day
12h 37m
Waning Gibbous, 86% of the Moon is Illuminated
Mar 30
Waning Gibbous
Apr 2
Last Quarter
Apr 10
New
Apr 18
First Quarter
Apr 25
Full

Hourly Weather History & Observations

Time (CDT) Temp. Windchill Dew Point Humidity Pressure Visibility Wind Dir Wind Speed Gust Speed Precip Events Conditions
12:52 AM 55.0 °F - 35.1 °F 47% 30.07 in 10.0 mi South 10.4 mph - 0.00 in   Overcast
1:52 AM 52.0 °F - 39.0 °F 61% 30.06 in 10.0 mi SSE 15.0 mph - 0.00 in Rain Light Rain
2:52 AM 50.0 °F - 41.0 °F 71% 30.03 in 9.0 mi SSE 11.5 mph - 0.05 in Rain Light Rain
3:52 AM 48.9 °F - 42.1 °F 77% 29.98 in 10.0 mi South 10.4 mph - 0.00 in   Overcast
4:52 AM 50.0 °F - 42.1 °F 74% 29.96 in 10.0 mi South 8.1 mph - N/A   Overcast
5:52 AM 48.9 °F - 45.0 °F 86% 29.99 in 5.0 mi WSW 5.8 mph - 0.06 in Rain Rain
6:52 AM 48.0 °F - 45.0 °F 89% 29.95 in 9.0 mi SSE 8.1 mph - 0.05 in   Overcast
7:52 AM 48.9 °F - 46.0 °F 90% 29.96 in 8.0 mi South 3.5 mph - N/A   Mostly Cloudy
8:52 AM 51.1 °F - 48.0 °F 89% 29.97 in 7.0 mi Calm Calm - N/A   Mostly Cloudy
9:52 AM 53.1 °F - 48.9 °F 86% 29.96 in 10.0 mi South 4.6 mph - N/A   Mostly Cloudy
10:52 AM 57.0 °F - 48.9 °F 74% 29.95 in 10.0 mi Calm Calm - N/A   Overcast
11:12 AM 59.0 °F - 48.2 °F 67% 29.94 in 10.0 mi West 4.6 mph - N/A   Overcast
11:27 AM 60.8 °F - 50.0 °F 68% 29.94 in 10.0 mi WNW 5.8 mph - N/A   Mostly Cloudy
11:52 AM 62.1 °F - 51.1 °F 67% 29.93 in 10.0 mi NW 12.7 mph - N/A   Mostly Cloudy
11:59 AM 60.8 °F - 50.0 °F 68% 29.93 in 10.0 mi WNW 15.0 mph - N/A   Mostly Cloudy
12:52 PM 64.0 °F - 50.0 °F 60% 29.92 in 10.0 mi WNW 15.0 mph - N/A   Mostly Cloudy
12:59 PM 64.4 °F - 50.0 °F 59% 29.92 in 10.0 mi NW 13.8 mph 19.6 mph N/A   Mostly Cloudy
1:52 PM 68.0 °F - 48.0 °F 49% 29.90 in 10.0 mi NNW 13.8 mph 20.7 mph N/A   Scattered Clouds
2:52 PM 66.9 °F - 41.0 °F 39% 29.91 in 10.0 mi NNW 19.6 mph - N/A   Scattered Clouds
3:52 PM 66.0 °F - 35.1 °F 32% 29.91 in 10.0 mi NNW 21.9 mph 25.3 mph N/A   Scattered Clouds
4:52 PM 66.0 °F - 39.0 °F 37% 29.90 in 10.0 mi NNW 18.4 mph - N/A   Mostly Cloudy
5:52 PM 64.0 °F - 35.1 °F 34% 29.91 in 10.0 mi North 16.1 mph 23.0 mph N/A   Mostly Cloudy
6:52 PM 61.0 °F - 37.9 °F 42% 29.91 in 10.0 mi NNW 9.2 mph - N/A   Mostly Cloudy
7:52 PM 57.0 °F - 39.0 °F 51% 29.92 in 10.0 mi North 9.2 mph - N/A   Mostly Cloudy
8:52 PM 52.0 °F - 37.9 °F 59% 29.94 in 10.0 mi NNE 4.6 mph - N/A   Mostly Cloudy
9:52 PM 50.0 °F - 39.0 °F 66% 29.95 in 10.0 mi North 3.5 mph - N/A   Overcast
10:52 PM 50.0 °F - 39.0 °F 66% 29.95 in 10.0 mi North 5.8 mph - N/A   Mostly Cloudy
11:52 PM 45.0 °F 41.8 °F 37.9 °F 76% 29.95 in 10.0 mi North 5.8 mph - N/A   Mostly Cloudy